Location: Gila Cliff Dwellings National Monument
(33.2240°N, 108.2417°W)
Time: 08:40:07
(UTC-06:00)

Cosmos 2322 Rocket - Visible Passes

Search period start: 29 August 2015 00:00
Search period end: 08 September 2015 00:00
Orbit: 832 x 852 km, 71.0° (Epoch: 28 August)

Date Brightness Start Highest point End Pass type
(mag) Time Alt. Az. Time Alt. Az. Time Alt. Az.
29 Aug 4.9 02:30:36 13° N 02:30:36 13° N 02:31:17 10° N visible
30 Aug 5.0 02:15:57 12° N 02:15:57 12° N 02:16:22 10° N visible
31 Aug 5.1 02:01:17 11° N 02:01:17 11° N 02:01:27 10° N visible
